Location: Newark
(33.6333°S, 78.8500°W)
Time: 15:57:02
(UTC+00:00)

Courier 1B - Pass Details

Date: 01 October 2019
Orbit: 962 x 1209 km, 28.3° (Epoch: 21 October)

Event Time Altitude Azimuth Distance (km) Brightness Sun altitude
Rises 19:08:17 0° 292° (WNW) 4,053 11.4 48.2°
Reaches altitude 10° 19:11:09 10° 297° (WNW) 3,114 11.1 47.8°
Maximum altitude 19:18:41 53° 11° (N) 1,457 9.4 46.5°
Drops below altitude 10° 19:26:17 10° 84° (E) 3,142 9.9 45.3°
Sets 19:29:12 0° 89° (E) 4,092 10.4 44.8°
